Regional Weather Roundup
Issued by NWS

Home | Current Version | Previous Version | Graphics & Text | Print | Product List | Glossary On
Versions: 1 2 3 4 5 6 7 8 9 10 11 12 13 14 15 16 17 18 19 20 21 22 23 24 25 26 27 28 29 30 31 32 33 34 35 36 37 38 39 40 41 42 43 44 45 46 47 48
000
ASUS43 KMPX 190610
RWRMN
WEATHER ROUNDUP FOR MINNESOTA
NATIONAL WEATHER SERVICE TWIN CITIES/CHANHASSEN MN
100 AM CDT THU APR 19 2018


NOTE: "FAIR" INDICATES FEW OR NO CLOUDS BELOW 12,000 FEET WITH NO
SIGNIFICANT WEATHER AND/OR OBSTRUCTIONS TO VISIBILITY. N/A MEANS
CURRENT SKY AND/OR WEATHER CONDITIONS ARE NOT AVAILABLE.

MNZ060>063-068>070-190700-
   Twin Cities Metro

CITY           SKY/WX    TMP DP  RH WIND       PRES   REMARKS
TWIN CITIES    FAIR      34  16  47 N5        30.24R WCI  30
6HR MIN TEMP:  32; 6HR MAX TEMP:  40;

ST PAUL        FAIR      29  15  56 N6        30.25R WCI  23
CRYSTAL        FAIR      25  14  63 NW6       30.24R WCI  18
BLAINE         FAIR      32  16  51 NW3       30.25R
LAKEVILLE      FAIR      30  18  59 NE5       30.24R WCI  25
EDEN PRAIRIE   FAIR      35  14  42 VRB3      30.23R
6HR MIN TEMP:  35; 6HR MAX TEMP:  41;

SOUTH ST PAUL  FAIR      35  14  42 CALM      30.24R
LAKE ELMO      FAIR      30  18  59 NW3       30.24R
$$
MNZ001>005-007-008-013>017-022>024-027-028-190700-
   Northwest Minnesota

CITY           SKY/WX    TMP DP  RH WIND       PRES   REMARKS
BEMIDJI        FAIR      30  15  52 CALM      30.27R
HALLOCK        FAIR      32  27  80 CALM      30.30R
ROSEAU         FAIR      32  25  74 CALM      30.29R
WARROAD        FAIR      28  23  80 CALM      30.29R
THIEF RVR FALL FAIR      34  18  52 CALM      30.30R
CROOKSTON      FAIR      34  27  75 CALM      30.31R
FOSSTON        FAIR      28  12  50 CALM      30.29R
DETROIT LAKES  FAIR      32  28  86 CALM      30.29R
MOORHEAD       FAIR      34  30  86 CALM      30.30R
PARK RAPIDS    FAIR      32  15  49 N5        30.26R WCI  27
MAHNOMEN       FAIR      32  19  58 CALM      30.29R
$$
MNZ006-009>011-018-025>026-190700-
   North Central Minnesota

CITY           SKY/WX    TMP DP  RH WIND       PRES   REMARKS
BAUDETTE       FAIR      27  23  85 CALM      30.28R
FLAG ISLAND    FAIR      28  16  59 CALM      30.29R
INTL FALLS     FAIR      26  18  71 CALM      30.28R
6HR MIN TEMP:  25; 6HR MAX TEMP:  46;

WASKISH        FAIR      25  19  80 CALM      30.29R
BIG FORK       FAIR      25  18  74 CALM      30.27R
LONGVILLE      FAIR      25  19  80 CALM      30.27R
GRAND RAPIDS   FAIR      33  11  39 E5        30.27R WCI  29
CRANE LAKE     FAIR      19  18  93 CALM      30.29R
ORR            FAIR      27  12  54 CALM      30.25R
COOK           FAIR      25  18  74 CALM      30.27R
WALKER         FAIR      28  13  54 W3        30.27R
$$
MNZ012-019>021-037-190700-
   Northeast Minnesota

CITY           SKY/WX    TMP DP  RH WIND       PRES   REMARKS
DULUTH         FAIR      28  12  51 N8        30.24R WCI  20
6HR MIN TEMP:  26; 6HR MAX TEMP:  38;

ELY            FAIR      23  18  80 CALM      30.25R
HIBBING        FAIR      22  17  81 CALM      30.25R
EVELETH        FAIR      25  19  78 CALM      30.27R
DULUTH HARBOR  FAIR      28  21  74 CALM      30.27R
TWO HARBORS    FAIR      30  18  59 NW3       30.23R
SILVER BAY     FAIR      25  19  80 CALM      30.23R
GRAND MARAIS     N/A     40  14  34 N8        30.23R
G MARAIS ARPRT FAIR      28   9  43 N9        30.22R WCI  20
$$
MNZ029>031-032-039>041-046>048-054>057-064-190700-
   West Central Minnesota

CITY           SKY/WX    TMP DP  RH WIND       PRES   REMARKS
FERGUS FALLS   FAIR      36  25  64 CALM      30.28R
WHEATON        CLOUDY    34  30  86 W3        30.32R
MORRIS         PTCLDY    34  28  80 NW7       30.28R WCI  28
ALEXANDRIA     FAIR      35  20  54 CALM      30.28R
ELBOW LAKE     FAIR      34  29  83 CALM      30.29R
WADENA         FAIR      30  16  55 CALM      30.27R
GLENWOOD       FAIR      32  25  74 CALM      30.29R
APPLETON       CLOUDY    36  28  75 CALM      30.29R
BENSON         CLOUDY    30  27  86 NE3       30.30R
ORTONVILLE     CLOUDY    36  28  75 NW7       30.30R
MADISON        CLOUDY    37  30  75 NW6       30.29R
WILLMAR        FAIR      32  27  80 CALM      30.31R
$$
MNZ033>034-036-042>043-049>051-058-059-190700-
   Central Minnesota

CITY           SKY/WX    TMP DP  RH WIND       PRES   REMARKS
ST CLOUD       FAIR      29  18  63 CALM      30.25R
6HR MIN TEMP:  28; 6HR MAX TEMP:  44;

SAUK CENTRE    FAIR      30  24  78 CALM      30.29R
PAYNESVILLE    FAIR      35  17  47 CALM      30.28R
AITKIN         FAIR      21  18  86 CALM      30.25R
PINE RIVER     FAIR      27  18  69 CALM      30.30R
BRAINERD       FAIR      31  15  52 CALM      30.26R
STAPLES        FAIR      28  18  64 CALM      30.28R
LONG PRAIRIE   FAIR      30  23  74 CALM      30.28R
LITTLE FALLS   FAIR      28  10  47 CALM      30.28
LITCHFIELD     FAIR      36  16  44 CALM      30.28R
BUFFALO        FAIR      28  16  61 CALM      30.27R
MAPLE LAKE     FAIR      30  18  60 NW5       30.27R WCI  26
HUTCHINSON     FAIR      34  18  51 N3        30.28R
$$
MNZ037-044-045-052-053-190700-
   East Central Minnesota

CITY           SKY/WX    TMP DP  RH WIND       PRES   REMARKS
PRINCETON      FAIR      28  18  64 CALM      30.26R
MORA           FAIR      32  14  47 CALM      30.26R
RUSH CITY      FAIR      29  18  63 N5        30.25R WCI  24
MOOSE LAKE     FAIR      25  12  58 N3        30.24R
HINCKLEY       FAIR      32  16  51 CALM      30.25R
CLOQUET        FAIR      27  12  54 N3        30.24R
MCGREGOR       FAIR      27  21  80 CALM      30.26R
$$
MNZ071>073-080-081-089-090-097-098-190700-
   Southwest Minnesota

CITY           SKY/WX    TMP DP  RH WIND       PRES   REMARKS
MONTEVIDEO     CLOUDY    34  27  75 NW3       30.29R
GRANITE FALLS  MOCLDY    32  28  86 W5        30.30R WCI  27
CANBY          CLOUDY    37  29  74 NW5       30.30R
MARSHALL       CLOUDY    32  27  81 NW12      30.29R WCI  23
REDWOOD FALLS  PTCLDY    32  23  69 N5        30.27R WCI  27
OLIVIA         CLOUDY    34  25  69 N8        30.28R WCI  27
PIPESTONE      PTCLDY   N/A N/A N/A N5        30.27R
WINDOM           N/A     28  12  50 NW13      30.24R WCI  18
WORTHINGTON    CLOUDY    29  25  85 NW9       30.26R WCI  20
JACKSON        CLOUDY    28  25  86 NW12      30.24R WCI  18
TRACY          CLOUDY    32  26  78 NW10      30.27R WCI  24
SLAYTON        CLOUDY    29  23  79 NW12      30.26R WCI  19
$$
MNZ065>067-074>077-082>085-091>093-190700-
   South Central Minnesota

CITY           SKY/WX    TMP DP  RH WIND       PRES   REMARKS
MANKATO        FAIR      25  22  88 N6        30.25R WCI  18
NEW ULM        CLOUDY    28  19  69 N5        30.26R WCI  23
ST JAMES       CLOUDY    27  23  86 NW9       30.26R WCI  17
FAIRMONT       CLOUDY    30  25  81 NW10      30.24R WCI  21
GLENCOE        FAIR      34  16  48 CALM      30.26R
OWATONNA       FOG       16  14  93 CALM      30.21R VSB 1/4
WASECA         FAIR      19  19 100 N7        30.23R WCI  10
ALBERT LEA     FAIR      25  23  93 CALM      30.21R
$$
MNZ078>079-086>088-094>096-190700-
   Southeast Minnesota

CITY           SKY/WX    TMP DP  RH WIND       PRES   REMARKS
ROCHESTER      FAIR      28  24  85 N9        30.18R WCI  19
6HR MIN TEMP:  28; 6HR MAX TEMP:  31; 6HR PCP:  0.01;

RED WING       FAIR      34  12  40 CALM      30.21R
STANTON        FAIR      26  18  71 CALM      30.22R
DODGE CENTER   FAIR      25  21  86 N7        30.20R WCI  17
WINONA         FAIR      32  32 100 CALM      30.18R
AUSTIN         FAIR      27  25  93 NW6       30.20R WCI  20
PRESTON        FAIR      29  25  83 N7        30.17R WCI  22
$$
ABBREVIATIONS USED IN REMARKS
   TC - TEMPERATURES IN CELSIUS
  WCI - WIND CHILL INDEX
   HX - HEAT INDEX
  VSB - VISIBILITY
$$




USA.gov is the U.S. government's official web portal to all federal, state and local government web resources and services.